GEFSMA_con_prob3kmehi_198.txt.gz
EHI
3 2 1 0 0 0 0 0 0 0 0 0 0 0 0 0 0 0 0 0 0 1 5 7 6 4 3 4 3 1 1 0 0 0 0 0 0 1 0 0 0 0 0
4 3 1 0 0 0 0 0 0 0 0 0 0 0 0 0 0 0 0 0 0 1 3 5 4 2 2 2 2 2 1 0 0 0 1 1 1 1 0 0 0 0 0
3 2 1 0 0 0 0 1 1 1 1 0 0 0 0 0 0 0 0 0 0 0 1 2 2 1 0 0 1 1 1 1 0 1 2 1 1 0 0 0 0 0 0
2 1 0 0 0 0 0 1 2 2 1 0 0 0 0 0 0 0 0 0 0 0 0 1 2 2 1 0 1 1 2 2 2 2 2 1 0 0 0 0 0 0 0
2 2 1 0 0 0 0 1 2 2 1 0 0 0 0 0 0 0 0 0 0 0 0 1 2 2 1 1 1 2 3 3 2 1 1 0 0 0 0 0 0 0 0
3 2 1 0 0 0 0 0 1 1 0 0 0 0 0 0 0 0 0 0 0 0 0 1 2 2 1 1 1 1 2 2 1 1 1 1 0 0 0 0 0 0 0
1 2 1 0 0 0 0 0 0 0 0 0 0 0 0 0 0 0 0 0 0 0 0 1 1 1 1 1 1 1 0 0 0 0 1 1 0 0 0 0 0 0 0
1 1 1 1 1 1 0 0 0 0 0 0 0 0 0 0 0 0 0 0 0 0 0 0 0 0 0 0 0 0 0 0 0 0 0 0 0 0 0 0 0 0 0
1 2 3 3 2 2 1 0 0 0 0 0 0 0 0 0 0 0 0 0 0 0 0 0 0 0 0 0 0 0 0 0 0 0 0 0 0 0 0 0 0 0 0
3 4 5 4 3 2 1 0 1 1 1 0 0 0 0 0 0 0 0 0 0 0 0 0 0 0 0 0 0 0 0 0 0 0 0 0 0 0 0 0 0 0 0
3 4 6 6 5 3 2 1 2 2 1 0 0 0 0 0 0 0 0 0 0 0 0 0 0 0 0 0 0 0 0 0 0 0 0 0 0 0 0 0 0 0 0
3 4 6 8 7 6 4 3 3 2 1 0 0 0 0 0 0 0 0 0 0 0 0 0 0 0 0 0 0 0 0 0 0 0 0 0 0 0 0 0 0 0 0
2 2 4 6 7 7 6 4 3 1 0 0 0 0 0 0 0 0 0 0 0 0 0 0 0 0 0 0 0 0 0 0 0 0 0 0 0 0 0 0 0 0 0
1 0 1 3 4 5 6 5 3 1 0 0 0 0 0 0 0 0 0 0 0 0 0 0 0 0 0 0 0 0 0 0 0 0 0 0 0 0 0 0 0 0 0
0 0 0 1 2 3 4 4 3 1 0 0 0 0 0 0 0 0 0 0 0 0 0 0 0 0 0 0 0 0 0 0 0 0 0 0 0 0 0 0 0 0 0
0 0 0 0 1 1 1 2 2 1 0 0 0 0 0 0 0 0 0 0 0 0 0 0 0 0 0 0 0 0 0 0 0 0 0 0 0 0 0 0 0 0 0
0 0 0 0 0 0 0 1 1 0 0 0 0 0 0 0 0 0 0 0 0 0 0 0 0 0 0 0 0 0 0 0 0 0 0 0 0 0 0 0 0 0 0
0 0 0 0 0 0 0 0 0 0 0 0 0 0 0 0 0 0 0 0 0 0 0 0 0 0 0 0 0 0 0 0 0 0 0 0 0 0 0 0 0 0 0
0 0 0 0 0 0 0 0 0 0 0 0 0 0 0 0 0 0 0 0 0 0 0 0 0 0 0 0 0 0 0 0 0 0 0 0 0 0 0 0 0 0 0
0 0 0 0 0 0 0 0 0 0 0 0 0 0 0 0 0 0 0 0 0 0 0 0 0 0 0 0 0 0 0 0 0 0 0 0 0 0 0 0 0 0 0
0 0 0 0 0 0 0 0 0 0 0 0 0 0 0 0 0 0 0 0 0 0 0 0 0 0 0 0 0 0 0 0 0 0 0 0 0 0 0 0 0 0 0
0 0 0 0 0 0 0 0 0 0 0 0 0 0 0 0 0 0 0 0 0 0 0 0 0 0 0 0 0 0 0 0 0 0 0 0 0 0 0 0 0 0 0
0 0 0 0 0 0 0 0 0 0 0 0 0 0 0 0 0 0 0 0 0 0 0 0 0 0 0 0 0 0 0 0 0 0 0 0 0 0 0 0 0 0 0
0 0 0 0 0 0 0 0 0 0 0 0 0 0 0 0 0 0 0 0 0 0 0 0 0 0 0 0 0 0 0 0 0 0 0 0 0 0 0 0 0 0 0
0 0 0 0 0 0 0 0 0 0 0 0 0 0 0 0 0 0 0 0 0 0 0 0 0 0 0 0 0 0 0 0 0 0 0 0 0 0 0 0 0 0 0
0 0 0 0 0 0 0 0 0 0 0 0 0 0 0 0 0 0 0 0 0 0 0 0 0 0 0 0 0 0 0 0 0 0 0 0 0 0 0 0 0 0 0

GEFSMA_con_prob3kmehi_204.txt.gz
EHI
13 15 16 14 7 3 3 3 2 1 0 0 0 0 0 0 0 0 0 0 0 0 0 0 1 2 2 3 3 4 3 1 1 2 2 1 0 0 0 0 0 0 0
11 12 13 11 7 4 3 2 1 1 0 0 0 0 0 0 0 0 0 0 0 0 0 0 0 1 2 3 4 5 4 2 1 2 2 1 0 0 0 0 0 0 0
10 10 9 8 5 4 4 2 2 2 1 0 0 0 0 0 0 0 0 0 0 0 1 1 1 0 2 3 5 6 6 3 1 2 2 1 1 0 0 0 0 0 0
11 9 7 7 5 5 5 4 4 4 2 1 0 0 0 0 0 0 0 0 0 0 1 2 1 1 1 2 4 5 5 3 3 3 3 3 2 0 0 0 0 0 0
10 8 6 6 5 5 5 6 7 6 3 1 0 0 0 0 0 0 0 0 0 0 1 2 2 1 1 1 1 2 3 3 4 6 7 6 3 0 0 0 0 0 0
8 6 4 4 4 3 3 5 7 6 4 2 1 0 0 0 0 0 0 0 0 0 0 1 1 1 0 0 0 1 1 2 4 5 6 5 3 1 0 0 0 0 0
6 5 4 4 4 3 2 4 6 6 5 4 2 1 0 0 0 0 0 0 0 0 0 0 0 0 0 0 0 0 0 1 1 2 2 2 2 1 0 0 0 0 0
6 5 4 5 5 5 4 5 6 6 5 4 3 2 0 0 0 0 0 0 0 0 0 0 0 0 0 0 0 0 0 0 0 0 0 0 0 0 0 0 0 0 0
8 7 6 6 7 7 6 6 7 6 5 5 6 4 2 0 0 0 0 0 0 0 0 0 0 0 0 0 0 0 0 0 0 0 0 0 0 0 0 0 0 0 0
9 8 6 8 9 9 8 7 7 6 6 7 8 7 5 2 1 0 0 0 0 0 0 0 0 0 0 0 0 0 0 0 0 0 0 0 0 0 0 0 0 0 0
9 7 5 6 8 8 8 8 7 6 7 8 8 8 7 5 3 1 0 0 1 1 0 0 0 0 0 0 0 0 0 0 0 0 0 0 0 0 0 0 0 0 0
8 6 4 5 5 6 7 7 6 5 6 7 8 9 9 7 4 1 0 0 1 1 0 1 1 1 1 1 0 0 0 0 0 0 0 0 0 0 0 0 0 0 0
7 5 4 4 4 4 5 5 4 4 4 6 7 9 9 8 4 2 1 1 1 1 0 1 1 1 1 1 0 0 0 0 0 0 0 0 0 0 0 0 0 0 0
7 6 4 5 4 4 4 4 4 3 4 6 7 9 9 7 5 4 3 2 1 0 0 0 1 0 0 0 0 0 0 0 0 0 0 0 0 0 0 0 0 0 0
7 6 5 5 6 5 4 4 3 4 5 6 7 7 7 6 5 4 3 2 1 0 0 1 1 1 0 0 0 0 0 0 0 0 0 0 0 0 0 0 0 0 0
7 6 6 7 7 6 4 4 4 4 5 6 6 5 5 5 4 4 3 2 1 0 0 2 2 1 0 0 0 0 0 0 0 0 0 0 0 0 0 0 0 0 0
6 6 6 6 6 6 5 5 5 4 4 5 5 4 3 3 3 4 3 1 0 0 0 1 1 1 0 0 0 0 0 0 0 0 0 0 0 0 0 0 0 0 0
6 6 6 5 4 5 5 5 4 3 3 3 3 2 1 1 2 4 4 1 0 0 0 0 0 0 0 0 0 0 0 0 0 0 0 0 0 0 0 0 0 0 0
6 6 5 4 3 4 4 4 3 3 3 1 1 1 0 0 2 4 4 1 0 0 0 0 0 0 0 0 0 0 0 1 0 0 0 0 0 0 0 0 0 0 0
5 5 4 3 3 3 3 3 3 3 2 1 0 0 0 0 2 3 3 2 1 0 0 0 0 0 0 0 0 0 0 0 0 0 0 0 0 0 0 0 0 0 0
4 4 3 3 3 3 3 2 2 1 1 0 0 0 0 0 1 2 2 2 1 0 0 0 0 0 0 0 0 0 0 0 0 0 0 0 0 0 0 0 0 0 0
4 4 3 3 3 2 1 1 1 0 0 0 0 0 0 0 0 1 1 1 1 0 0 0 0 0 0 0 0 0 0 0 0 0 0 0 0 0 0 0 0 0 0
6 5 4 3 3 1 0 0 0 0 0 0 1 2 1 1 0 0 0 0 0 0 0 0 0 0 0 0 0 0 0 0 0 0 0 0 0 0 0 0 0 0 0
6 6 4 3 2 1 0 0 0 0 0 1 2 3 3 3 1 0 0 0 0 0 0 0 0 0 0 0 0 0 0 0 0 0 0 0 0 0 0 0 0 0 0
7 6 4 3 3 1 0 0 0 0 0 2 3 3 3 2 1 0 0 0 0 0 0 0 0 0 0 0 0 0 0 0 0 0 0 0 0 0 0 0 0 0 0
8 6 4 4 4 2 1 0 0 0 0 1 3 3 2 1 0 0 0 0 0 0 0 0 0 0 0 0 0 0 0 0 0 0 0 0 0 0 0 0 0 0 0

GEFSMA_con_prob3kmehi_210.txt.gz
EHI
36 35 32 29 25 20 15 11 9 7 4 2 1 0 1 0 0 0 0 1 2 2 1 1 2 2 1 2 2 2 1 1 2 1 0 0 0 0 0 0 0 0 0
37 35 31 28 25 21 17 13 10 7 4 2 1 1 1 1 0 1 1 1 3 4 4 4 5 5 3 3 2 2 1 2 3 3 2 1 0 0 0 0 0 0 0
39 36 31 27 25 20 18 17 13 8 4 2 1 1 2 2 2 3 3 3 4 6 8 7 7 7 5 4 3 1 2 4 5 5 4 2 0 0 0 0 0 0 0
38 37 31 27 23 18 15 17 15 10 5 3 1 1 3 3 3 4 5 5 4 5 7 9 8 7 6 5 4 3 3 5 6 6 4 2 0 0 0 0 0 0 0
36 36 31 25 21 16 13 13 13 11 8 5 2 2 4 4 4 4 5 6 5 4 5 8 9 7 6 7 6 4 3 4 4 3 1 0 0 0 0 0 0 0 0
34 33 28 22 19 17 14 12 11 11 10 7 3 1 3 4 4 5 5 6 5 4 4 5 7 6 6 6 6 4 2 2 1 0 0 0 0 0 0 0 0 0 0
33 30 24 20 18 18 17 14 13 12 11 8 3 1 3 3 4 5 5 5 4 4 3 3 5 6 5 4 4 3 2 2 2 1 1 0 0 0 0 0 0 0 0
32 27 22 19 18 18 17 15 15 14 11 8 5 3 3 3 3 3 4 4 4 4 2 1 3 5 5 5 4 4 3 4 4 3 2 1 0 0 0 0 0 0 0
29 26 22 19 17 17 15 15 16 15 11 9 7 5 4 3 2 2 3 3 4 4 2 0 2 5 6 6 5 4 5 6 5 4 2 1 0 0 0 0 0 0 0
24 23 22 19 17 16 15 15 15 13 11 9 7 5 4 3 2 2 2 3 4 4 1 0 1 4 5 6 5 5 5 6 5 3 2 1 0 0 0 0 0 0 0
23 22 20 18 16 15 14 14 13 11 9 8 6 5 4 4 3 2 2 2 3 2 1 1 3 3 4 4 4 4 4 4 3 1 1 0 0 0 0 0 0 0 0
23 21 18 16 14 12 11 11 11 10 8 7 5 4 4 4 4 2 1 1 1 1 1 3 4 4 3 3 3 2 1 1 1 0 0 0 0 0 0 0 0 0 0
21 19 16 14 11 8 8 8 9 8 7 7 6 5 4 4 4 2 1 0 0 0 2 4 5 4 3 3 2 1 0 0 0 0 0 0 0 0 0 0 0 0 0
17 16 14 11 8 7 6 7 7 7 7 7 7 6 5 4 4 2 1 1 0 0 1 2 4 5 4 4 2 1 0 0 0 0 0 0 0 0 0 0 0 0 0
15 14 13 11 9 7 6 6 6 6 7 7 7 6 6 5 4 3 3 2 2 1 0 0 2 3 4 4 2 1 0 0 0 0 0 0 0 0 0 0 0 0 0
12 12 12 11 9 7 6 6 6 6 6 6 6 6 6 6 5 4 5 4 3 2 1 1 1 2 4 4 2 1 0 0 0 0 0 0 0 0 0 0 0 0 0
11 11 11 10 9 7 6 6 6 6 6 6 6 6 6 6 6 6 5 4 4 3 2 2 1 3 4 4 1 0 0 0 0 0 0 0 0 0 0 0 0 0 0
11 11 10 10 9 7 6 6 6 6 6 6 6 6 6 6 6 5 4 3 3 3 2 1 2 3 4 3 1 0 0 0 0 0 0 0 0 0 0 0 0 0 0
11 10 9 9 9 6 5 4 4 4 4 4 4 5 6 5 4 2 2 3 3 2 1 0 1 1 3 2 1 0 0 0 0 0 0 0 0 0 0 0 0 0 0
10 9 8 8 7 5 4 4 3 3 3 3 3 4 4 3 2 1 1 3 3 1 0 0 0 1 2 2 1 0 0 0 0 0 0 0 0 0 0 0 0 0 0
10 9 8 7 6 5 4 4 4 3 3 3 3 2 2 1 0 0 1 2 2 1 0 0 0 0 1 1 1 0 0 0 0 0 0 0 0 0 0 0 0 0 0
9 8 7 6 5 4 3 3 3 3 3 3 3 1 0 0 0 0 1 1 1 0 0 0 0 0 0 0 0 0 0 0 0 0 0 0 0 0 0 0 0 0 0
6 6 5 4 4 3 2 2 3 3 3 3 2 1 1 1 1 0 0 0 0 0 0 0 0 0 0 0 0 0 0 0 0 0 0 0 0 0 0 0 0 0 0
4 4 4 3 3 1 0 1 2 3 3 2 1 1 2 3 2 0 0 0 0 0 0 0 0 0 0 0 0 0 0 0 0 0 0 0 0 0 0 0 0 0 0
4 4 4 3 2 1 0 0 1 2 2 1 0 0 1 2 1 0 0 0 0 0 0 0 0 0 0 0 0 0 0 0 0 0 0 0 0 0 0 0 0 0 0
4 4 4 3 2 1 0 0 1 2 1 0 0 0 0 1 0 0 0 0 0 0 0 0 0 0 0 0 0 0 0 0 0 0 0 0 0 0 0 0 0 0 0

GEFSMA_con_prob3kmehi_216.txt.gz
EHI
7 7 6 4 2 1 0 0 0 0 0 0 0 0 0 0 0 0 1 2 4 4 4 4 5 5 5 5 4 4 4 4 3 4 4 2 1 0 0 0 0 0 0
10 7 5 4 2 1 0 0 0 0 0 0 0 0 0 0 0 0 0 1 3 4 5 6 6 6 5 4 3 2 3 3 3 3 4 4 2 1 0 0 0 0 0
9 7 5 4 3 1 1 1 0 0 0 0 0 0 0 0 0 0 0 0 1 3 5 7 8 7 5 3 3 2 2 2 2 2 2 3 3 2 1 0 0 0 0
8 7 6 5 3 2 2 1 0 0 0 0 0 0 0 0 0 0 0 0 0 1 3 6 8 7 5 4 3 3 3 2 2 1 1 1 1 2 1 0 0 0 0
10 9 7 5 3 1 1 1 0 0 0 0 0 0 0 0 0 0 0 0 0 0 1 3 5 6 6 5 4 4 4 2 1 1 0 0 0 1 1 0 0 0 0
9 7 6 4 2 0 0 0 0 0 0 0 0 0 0 0 0 0 0 0 0 0 0 0 2 3 5 5 5 5 3 2 1 0 0 0 0 0 0 0 0 0 0
6 5 4 3 1 0 0 0 0 0 0 0 0 0 0 0 0 0 0 0 0 0 1 1 1 1 2 4 5 5 4 3 2 1 0 0 0 0 0 0 0 0 0
6 4 3 2 1 0 0 0 0 0 0 0 0 0 0 0 0 0 0 0 0 0 1 2 1 0 0 1 2 4 5 5 4 3 1 1 0 0 0 0 0 0 0
9 7 4 2 0 0 0 0 0 1 1 0 0 0 0 0 0 0 0 0 0 0 1 1 1 0 0 0 0 2 3 5 6 5 4 2 1 0 0 0 0 0 0
12 10 6 2 1 0 0 0 0 1 1 1 1 0 0 0 0 0 0 0 0 0 0 0 0 0 0 0 0 0 1 3 4 5 5 4 2 1 0 0 0 0 0
12 10 7 4 3 1 0 0 0 0 1 2 1 0 0 0 0 0 0 0 0 0 0 0 0 0 0 0 0 0 0 1 1 3 3 3 3 1 0 0 0 0 0
9 8 6 5 5 3 1 1 0 0 1 1 1 0 0 0 0 0 0 0 0 0 0 0 0 0 0 0 0 0 0 0 0 1 1 1 1 1 0 0 0 0 0
6 5 5 5 6 5 4 2 1 0 0 0 0 0 0 0 0 0 0 0 0 0 0 0 0 0 0 0 0 0 0 0 0 0 0 0 0 0 0 0 0 0 0
3 3 3 4 6 6 5 4 2 1 0 0 0 0 0 0 0 0 0 0 0 0 0 0 0 0 0 0 0 0 0 0 0 0 0 0 0 0 0 0 0 0 0
1 1 2 4 5 6 6 4 3 2 1 0 0 0 0 0 0 0 0 0 0 0 0 0 0 0 0 0 0 0 0 0 0 0 0 0 0 0 0 0 0 0 0
0 0 2 3 4 5 5 4 3 3 3 1 0 0 0 0 0 0 0 0 0 0 0 0 0 0 0 0 0 0 0 0 0 0 0 0 0 0 0 0 0 0 0
0 0 2 3 4 4 4 3 3 3 3 2 1 1 0 0 0 0 0 0 0 0 0 0 0 0 0 0 0 0 0 0 0 0 0 0 0 0 0 0 0 0 0
0 0 1 2 3 3 3 3 3 4 3 3 3 2 1 0 0 0 0 0 0 0 0 0 0 0 0 0 0 0 0 0 0 0 0 0 0 0 0 0 0 0 0
0 0 0 2 3 3 3 2 2 3 3 2 2 2 1 0 0 0 0 0 0 0 0 0 0 0 0 0 0 0 0 0 0 0 0 0 0 0 0 0 0 0 0
1 1 2 3 4 4 3 1 1 1 1 1 1 1 0 0 0 0 0 0 0 0 0 0 0 0 0 0 0 0 0 0 0 0 0 0 0 0 0 0 0 0 0
2 2 4 5 5 4 3 2 1 0 0 0 0 0 0 0 0 0 0 0 0 0 0 0 0 0 0 0 0 0 0 0 0 0 0 0 0 0 0 0 0 0 0
2 2 3 4 4 3 3 2 2 1 1 0 0 0 0 0 0 0 0 0 0 0 0 0 0 0 0 0 0 0 0 0 0 0 0 0 0 0 0 0 0 0 0
1 2 3 3 3 3 1 1 1 1 1 1 1 1 0 0 0 0 0 0 0 0 0 0 0 0 0 0 0 0 0 0 0 0 0 0 0 0 0 0 0 0 0
2 3 3 3 3 2 1 0 0 1 1 1 1 1 0 0 0 0 0 0 0 0 0 0 0 0 0 0 0 0 0 0 0 0 0 0 0 0 0 0 0 0 0
3 3 3 3 3 2 1 0 1 2 2 1 0 0 0 0 0 0 0 0 0 0 0 0 0 0 0 0 0 0 0 0 0 0 0 0 0 0 0 0 0 0 0
3 3 3 3 3 2 1 0 1 2 2 1 0 0 0 0 0 0 0 0 0 0 0 0 0 0 0 0 0 0 0 0 0 0 0 0 0 0 0 0 0 0 0